SIA346 WSSS-LSZH

Flight info

Callsign SIA346
Flight time N/A
Altitude 30000
Route AROSO3A AROSO Y513 KALIL Y501 RINBA Y503 VPL P628 PPB/N0510F320 P628 LATOS/N0501F340 P628 RK G202 ZB/N0499F330 G325 LAKRA/N0495F340 M881 LAJAK L509 TAPIS M875 AMDAR/K0909F340 DCT INDUD Z777 MANAT/N0491F340 B376 LBA A118 ABDAN B114 BUROT G775 DOLOS B449 MAMED P130 DOGAM/N0487F360 DCT BODKA M747 SULEL N449 TELLI DCT INDUR UN161 ALVAR DCT ERZ UL746 SONAD DCT ODERO L746 LUGEB DCT MOPUG/N0480F380 DCT NALOX DCT SUNIS DCT TRAUN DCT KONIN L856 NEGRA
Aircraft B77W/H-SDE1E2E3FGHIJ4J5M1P2RWXYZ/LB1D1

Departure

Time 2026-05-07 22:49
Airport Singapore Changi Airport (WSSS)

Arrival

Time N/A
Airport Zürich Airport (LSZH)
Time Latitude Longitude Altitude Speed Heading
2026-05-07 22:20 1.35489 103.98394 35 ft 0 kts 94°
2026-05-07 22:36 1.35490 103.98381 35 ft 4 kts 102°
2026-05-07 22:37 1.35499 103.98356 33 ft 4 kts 121°
2026-05-07 22:37 1.35515 103.98335 33 ft 4 kts 139°
2026-05-07 22:37 1.35537 103.98320 33 ft 4 kts 160°
2026-05-07 22:37 1.35561 103.98317 32 ft 3 kts 200°
2026-05-07 22:38 1.35564 103.98317 32 ft 0 kts 203°
2026-05-07 22:40 1.35547 103.98311 35 ft 7 kts 200°
2026-05-07 22:40 1.35476 103.98283 35 ft 15 kts 202°
2026-05-07 22:41 1.35374 103.98241 35 ft 16 kts 202°
2026-05-07 22:41 1.35272 103.98199 35 ft 16 kts 202°
2026-05-07 22:41 1.35170 103.98155 35 ft 16 kts 203°
2026-05-07 22:41 1.35069 103.98111 35 ft 16 kts 203°
2026-05-07 22:42 1.34967 103.98069 35 ft 16 kts 200°
2026-05-07 22:42 1.34865 103.98026 35 ft 16 kts 202°
2026-05-07 22:42 1.34777 103.98068 36 ft 16 kts 119°
2026-05-07 22:42 1.34731 103.98170 36 ft 16 kts 111°
2026-05-07 22:43 1.34686 103.98273 43 ft 16 kts 114°
2026-05-07 22:43 1.34641 103.98379 47 ft 17 kts 113°
2026-05-07 22:43 1.34593 103.98491 47 ft 19 kts 112°
2026-05-07 22:43 1.34530 103.98638 36 ft 25 kts 113°
2026-05-07 22:44 1.34461 103.98797 35 ft 25 kts 112°
2026-05-07 22:44 1.34369 103.98928 35 ft 24 kts 171°
2026-05-07 22:44 1.34217 103.98867 35 ft 24 kts 202°
2026-05-07 22:44 1.34065 103.98802 35 ft 24 kts 203°
2026-05-07 22:45 1.33913 103.98738 35 ft 24 kts 202°
2026-05-07 22:45 1.33761 103.98674 35 ft 24 kts 204°
2026-05-07 22:45 1.33609 103.98611 35 ft 24 kts 202°
2026-05-07 22:45 1.33457 103.98546 35 ft 24 kts 203°
2026-05-07 22:46 1.33309 103.98484 35 ft 24 kts 202°
2026-05-07 22:46 1.33156 103.98420 35 ft 24 kts 202°
2026-05-07 22:46 1.33004 103.98356 35 ft 24 kts 202°
2026-05-07 22:46 1.32876 103.98310 35 ft 19 kts 182°
2026-05-07 22:47 1.32834 103.98338 35 ft 4 kts 119°
2026-05-07 22:47 1.32828 103.98363 35 ft 4 kts 98°
2026-05-07 22:47 1.32837 103.98416 35 ft 13 kts 69°
2026-05-07 22:47 1.32888 103.98497 35 ft 14 kts 40°
2026-05-07 22:48 1.32934 103.98520 35 ft 0 kts 22°
2026-05-07 22:48 1.33094 103.98587 35 ft 60 kts 23°
2026-05-07 22:48 1.33695 103.98842 35 ft 127 kts 23°
2026-05-07 22:48 1.34704 103.99267 35 ft 188 kts 22°
2026-05-07 22:49 1.36005 103.99780 389 ft 201 kts 21°
2026-05-07 22:49 1.37337 104.00337 881 ft 211 kts 23°
2026-05-07 22:49 1.38699 104.00931 1432 ft 214 kts 24°
2026-05-07 22:49 1.40089 104.01533 1787 ft 226 kts 24°
2026-05-07 22:50 1.41589 104.02169 1952 ft 242 kts 20°
2026-05-07 22:50 1.43273 104.02333 2135 ft 252 kts 344°
2026-05-07 22:50 1.44804 104.01459 2338 ft 262 kts 316°
2026-05-07 22:50 1.46156 104.00184 2675 ft 272 kts 316°
2026-05-07 22:51 1.47556 103.98884 3226 ft 277 kts 316°
2026-05-07 22:51 1.48967 103.97596 3833 ft 278 kts 317°
2026-05-07 22:51 1.50418 103.96287 4533 ft 278 kts 317°
2026-05-07 22:51 1.51841 103.95017 5117 ft 280 kts 317°
2026-05-07 22:52 1.53307 103.93720 5695 ft 283 kts 317°
2026-05-07 22:52 1.54789 103.92418 6268 ft 285 kts 318°
2026-05-07 22:52 1.56286 103.91109 6797 ft 287 kts 318°
2026-05-07 22:52 1.57799 103.89791 7310 ft 290 kts 318°
2026-05-07 22:53 1.59329 103.88461 7823 ft 293 kts 319°
2026-05-07 22:53 1.60877 103.87118 8346 ft 296 kts 319°
2026-05-07 22:53 1.62434 103.85768 8866 ft 298 kts 319°
2026-05-07 22:53 1.64006 103.84406 9386 ft 301 kts 319°
2026-05-07 22:54 1.65594 103.83030 9859 ft 304 kts 319°
2026-05-07 22:54 1.67201 103.81639 10270 ft 310 kts 319°
2026-05-07 22:54 1.68875 103.80190 10394 ft 327 kts 319°
2026-05-07 22:54 1.70639 103.78664 10532 ft 344 kts 319°
2026-05-07 22:55 1.72500 103.77054 10677 ft 362 kts 319°
2026-05-07 22:55 1.74447 103.75369 10855 ft 377 kts 319°
2026-05-07 22:55 1.76459 103.73628 11206 ft 387 kts 319°
2026-05-07 22:55 1.78510 103.71853 11713 ft 393 kts 319°
2026-05-07 22:56 1.80584 103.70057 12328 ft 396 kts 320°
2026-05-07 22:56 1.82672 103.68249 12945 ft 399 kts 320°
2026-05-07 22:56 1.84752 103.66448 13510 ft 403 kts 320°
2026-05-07 22:56 1.86879 103.64608 14015 ft 407 kts 320°
2026-05-07 22:57 1.89031 103.62744 14500 ft 411 kts 320°
2026-05-07 22:57 1.91200 103.60867 14997 ft 414 kts 320°
2026-05-07 22:57 1.93387 103.58974 15477 ft 418 kts 320°
2026-05-07 22:57 1.95591 103.57066 15970 ft 421 kts 320°
2026-05-07 22:58 1.97808 103.55146 16441 ft 425 kts 320°
2026-05-07 22:58 2.00054 103.53200 16897 ft 429 kts 320°
2026-05-07 22:58 2.02318 103.51240 17354 ft 433 kts 320°
2026-05-07 22:58 2.04604 103.49260 17811 ft 436 kts 321°
2026-05-07 22:59 2.06904 103.47268 18249 ft 440 kts 321°
2026-05-07 22:59 2.09224 103.45258 18627 ft 443 kts 321°
2026-05-07 22:59 2.11551 103.43227 19006 ft 445 kts 318°
2026-05-07 22:59 2.13621 103.40906 19317 ft 452 kts 306°
2026-05-07 23:00 2.15223 103.38191 19692 ft 456 kts 296°
2026-05-07 23:00 2.16340 103.35220 20053 ft 458 kts 287°
2026-05-07 23:00 2.17208 103.32149 20396 ft 461 kts 286°
2026-05-07 23:00 2.18073 103.29044 20743 ft 465 kts 286°
2026-05-07 23:01 2.18950 103.25927 21123 ft 467 kts 286°
2026-05-07 23:01 2.19845 103.22795 21497 ft 469 kts 286°
2026-05-07 23:01 2.20755 103.19656 21860 ft 472 kts 287°
2026-05-07 23:01 2.21680 103.16493 22209 ft 475 kts 287°
2026-05-07 23:02 2.22614 103.13316 22556 ft 478 kts 287°
2026-05-07 23:02 2.23555 103.10117 22885 ft 481 kts 287°
2026-05-07 23:02 2.24499 103.06907 23266 ft 482 kts 287°
2026-05-07 23:02 2.25445 103.03686 23587 ft 484 kts 287°
2026-05-07 23:03 2.26396 103.00448 23862 ft 486 kts 287°
2026-05-07 23:03 2.27351 102.97197 24141 ft 488 kts 287°
2026-05-07 23:03 2.28308 102.93934 24432 ft 490 kts 287°
2026-05-07 23:03 2.29268 102.90661 24723 ft 492 kts 287°
2026-05-07 23:04 2.30232 102.87376 25002 ft 493 kts 287°
2026-05-07 23:04 2.31198 102.84079 25275 ft 495 kts 287°
2026-05-07 23:04 2.32154 102.80810 25534 ft 497 kts 287°
2026-05-07 23:04 2.33124 102.77486 25798 ft 499 kts 287°
2026-05-07 23:05 2.34097 102.74151 26059 ft 501 kts 287°
2026-05-07 23:05 2.35074 102.70803 26316 ft 503 kts 287°
2026-05-07 23:05 2.36054 102.67444 26571 ft 504 kts 287°
2026-05-07 23:05 2.37037 102.64076 26825 ft 506 kts 287°
2026-05-07 23:06 2.38025 102.60690 27075 ft 508 kts 287°
2026-05-07 23:06 2.39030 102.57245 27308 ft 510 kts 287°
2026-05-07 23:06 2.40025 102.53833 27561 ft 511 kts 287°
2026-05-07 23:06 2.41009 102.50462 27790 ft 513 kts 287°
2026-05-07 23:07 2.42008 102.47034 28010 ft 514 kts 287°
2026-05-07 23:07 2.43010 102.43598 28228 ft 516 kts 287°
2026-05-07 23:07 2.44016 102.40148 28438 ft 517 kts 287°
2026-05-07 23:07 2.45142 102.36737 28622 ft 517 kts 294°
2026-05-07 23:08 2.46854 102.33573 28765 ft 518 kts 305°
2026-05-07 23:08 2.49081 102.30757 28962 ft 517 kts 314°
2026-05-07 23:08 2.51741 102.28344 29128 ft 516 kts 324°
2026-05-07 23:08 2.54645 102.26225 29302 ft 517 kts 325°
2026-05-07 23:09 2.57533 102.24068 29451 ft 519 kts 323°
2026-05-07 23:09 2.60389 102.21852 29615 ft 520 kts 323°
2026-05-07 23:09 2.63236 102.19610 29750 ft 521 kts 323°
2026-05-07 23:10 2.68923 102.15121 29837 ft 519 kts 323°
2026-05-07 23:10 2.74595 102.10653 29845 ft 519 kts 323°
2026-05-07 23:11 2.80262 102.06198 29845 ft 518 kts 323°
2026-05-07 23:11 2.85932 102.01741 29841 ft 518 kts 323°
2026-05-07 23:12 2.91595 101.97287 29843 ft 518 kts 323°
2026-05-07 23:12 2.97254 101.92836 29841 ft 517 kts 323°
2026-05-07 23:13 3.02911 101.88385 29856 ft 517 kts 323°
2026-05-07 23:13 3.08562 101.83939 29855 ft 517 kts 323°
2026-05-07 23:14 3.14212 101.79492 29850 ft 517 kts 323°
2026-05-07 23:14 3.19829 101.75072 29848 ft 517 kts 323°
2026-05-07 23:15 3.25473 101.70628 29843 ft 517 kts 323°
2026-05-07 23:15 3.31155 101.66221 29846 ft 516 kts 326°
2026-05-07 23:16 3.37359 101.62637 29845 ft 514 kts 337°
2026-05-07 23:16 3.43927 101.59799 29854 ft 515 kts 338°
2026-05-07 23:17 3.50511 101.56938 29869 ft 516 kts 338°
2026-05-07 23:17 3.57088 101.54029 29865 ft 517 kts 337°
2026-05-07 23:18 3.63672 101.51103 29867 ft 518 kts 337°
2026-05-07 23:18 3.70255 101.48180 29869 ft 518 kts 337°
2026-05-07 23:19 3.76840 101.45257 29855 ft 517 kts 337°
2026-05-07 23:19 3.83420 101.42336 29862 ft 517 kts 337°
2026-05-07 23:20 3.90003 101.39412 29865 ft 518 kts 337°
2026-05-07 23:20 3.95473 101.36980 29861 ft 518 kts 337°
2026-05-07 23:21 4.02059 101.34049 29864 ft 518 kts 337°
2026-05-07 23:21 4.08641 101.31119 29872 ft 518 kts 337°
2026-05-07 23:22 4.15224 101.28189 29857 ft 518 kts 337°
2026-05-07 23:22 4.21806 101.25259 29866 ft 517 kts 337°
2026-05-07 23:23 4.28377 101.22333 29863 ft 517 kts 337°
2026-05-07 23:23 4.34947 101.19407 29867 ft 516 kts 338°
2026-05-07 23:24 4.41509 101.16483 29859 ft 516 kts 337°
2026-05-07 23:24 4.48066 101.13561 29861 ft 516 kts 337°
2026-05-07 23:25 4.54629 101.10636 29853 ft 517 kts 337°
2026-05-07 23:25 4.61210 101.07729 29861 ft 517 kts 338°
2026-05-07 23:26 4.67831 101.04885 29862 ft 518 kts 338°
2026-05-07 23:26 4.74467 101.02042 29861 ft 519 kts 338°
2026-05-07 23:27 4.84416 100.97756 29862 ft 519 kts 338°
2026-05-07 23:27 4.91042 100.94895 29858 ft 519 kts 338°
2026-05-07 23:28 4.97675 100.92031 29867 ft 519 kts 338°
2026-05-07 23:28 5.04312 100.89166 29866 ft 520 kts 338°
2026-05-07 23:29 5.10955 100.86298 29851 ft 519 kts 338°
2026-05-07 23:29 5.17589 100.83432 29854 ft 519 kts 338°
2026-05-07 23:30 5.24227 100.80564 29852 ft 519 kts 338°
2026-05-07 23:30 5.30863 100.77697 29855 ft 519 kts 338°
2026-05-07 23:31 5.37149 100.74216 29851 ft 521 kts 326°
2026-05-07 23:31 5.42679 100.69506 29841 ft 523 kts 315°
2026-05-07 23:32 5.47738 100.64257 29842 ft 523 kts 315°
2026-05-07 23:32 5.52804 100.59001 29836 ft 524 kts 315°
2026-05-07 23:33 5.57903 100.53771 29830 ft 524 kts 315°
2026-05-07 23:33 5.63018 100.48554 29835 ft 524 kts 315°
2026-05-07 23:34 5.68133 100.43336 29835 ft 524 kts 315°
2026-05-07 23:34 5.73248 100.38112 29833 ft 524 kts 315°
2026-05-07 23:35 5.78362 100.32888 29831 ft 524 kts 315°
2026-05-07 23:35 5.83469 100.27667 29833 ft 524 kts 315°
2026-05-07 23:36 5.88579 100.22442 29838 ft 524 kts 315°
2026-05-07 23:36 5.93685 100.17221 29837 ft 524 kts 315°
2026-05-07 23:37 5.98790 100.11999 29843 ft 524 kts 315°
2026-05-07 23:37 6.03894 100.06777 29848 ft 524 kts 315°
2026-05-07 23:38 6.08994 100.01556 29847 ft 523 kts 315°
2026-05-07 23:38 6.14093 99.96336 29846 ft 523 kts 315°
2026-05-07 23:39 6.19193 99.91112 29846 ft 523 kts 315°
2026-05-07 23:39 6.24290 99.85890 29847 ft 523 kts 315°
2026-05-07 23:40 6.29391 99.80662 29849 ft 523 kts 315°
2026-05-07 23:40 6.34164 99.75154 29820 ft 524 kts 304°
2026-05-07 23:41 6.37681 99.68759 29828 ft 523 kts 292°
2026-05-07 23:41 6.40189 99.61901 29831 ft 523 kts 290°
2026-05-07 23:42 6.42678 99.55034 29836 ft 523 kts 290°
2026-05-07 23:42 6.45225 99.48184 29840 ft 523 kts 290°
2026-05-07 23:43 6.47768 99.41387 29844 ft 523 kts 290°
2026-05-07 23:43 6.50325 99.34534 29845 ft 523 kts 290°
2026-05-07 23:44 6.52871 99.27678 29850 ft 524 kts 290°
2026-05-07 23:44 6.55414 99.20813 29843 ft 524 kts 290°
2026-05-07 23:45 6.57957 99.13947 29840 ft 524 kts 290°
2026-05-07 23:45 6.60498 99.07087 29845 ft 523 kts 290°
2026-05-07 23:46 6.63039 99.00225 29841 ft 523 kts 290°
2026-05-07 23:46 6.65575 98.93370 29837 ft 523 kts 290°
2026-05-07 23:47 6.68107 98.86524 29841 ft 522 kts 290°
2026-05-07 23:47 6.70638 98.79678 29841 ft 522 kts 290°
2026-05-07 23:48 6.73168 98.72831 29842 ft 522 kts 290°
2026-05-07 23:48 6.75696 98.65986 29841 ft 522 kts 291°
2026-05-07 23:49 6.78224 98.59137 29839 ft 522 kts 290°
2026-05-07 23:49 6.80749 98.52294 29838 ft 522 kts 290°
2026-05-07 23:50 6.83273 98.45451 29839 ft 522 kts 290°
2026-05-07 23:50 6.85795 98.38607 29838 ft 522 kts 290°
2026-05-07 23:51 6.88318 98.31759 29844 ft 522 kts 291°
2026-05-07 23:51 6.90820 98.24963 29840 ft 522 kts 291°
2026-05-07 23:52 6.93357 98.18070 29841 ft 522 kts 291°
2026-05-07 23:52 6.95860 98.11264 29841 ft 522 kts 291°
2026-05-07 23:53 6.98430 98.04445 29835 ft 520 kts 296°
2026-05-07 23:53 7.02471 97.98464 29848 ft 518 kts 314°
2026-05-07 23:54 7.07998 97.93887 29856 ft 515 kts 326°
2026-05-07 23:54 7.13861 97.89688 29849 ft 518 kts 325°
2026-05-07 23:55 7.19702 97.85429 29846 ft 520 kts 325°
2026-05-07 23:55 7.25536 97.81112 29845 ft 521 kts 324°
2026-05-07 23:56 7.31377 97.76775 29843 ft 521 kts 324°
2026-05-07 23:56 7.37211 97.72447 29842 ft 521 kts 324°
2026-05-07 23:57 7.43040 97.68125 29842 ft 520 kts 324°
2026-05-07 23:57 7.48861 97.63807 29844 ft 519 kts 324°
2026-05-07 23:58 7.54671 97.59497 29846 ft 518 kts 324°
2026-05-07 23:58 7.60475 97.55187 29843 ft 518 kts 324°
2026-05-07 23:59 7.66278 97.50880 29844 ft 518 kts 324°
2026-05-07 23:59 7.72091 97.46579 29844 ft 518 kts 324°
2026-05-08 00:00 7.77906 97.42278 29846 ft 518 kts 324°
2026-05-08 00:00 7.83719 97.37972 29848 ft 519 kts 324°
2026-05-08 00:01 7.89540 97.33659 29848 ft 519 kts 324°
2026-05-08 00:01 7.95358 97.29345 29847 ft 519 kts 324°
2026-05-08 00:02 8.01178 97.25022 29846 ft 519 kts 323°
2026-05-08 00:02 8.06359 97.20016 29851 ft 521 kts 311°
2026-05-08 00:03 8.10509 97.14032 29846 ft 521 kts 301°
2026-05-08 00:03 8.14214 97.07737 29847 ft 522 kts 301°
2026-05-08 00:04 8.17938 97.01441 29941 ft 524 kts 301°
2026-05-08 00:04 8.19819 96.98294 30177 ft 522 kts 302°
2026-05-08 00:04 8.21694 96.95169 30452 ft 520 kts 302°
2026-05-08 00:05 8.23565 96.92057 30745 ft 517 kts 302°
2026-05-08 00:05 8.25430 96.88956 31014 ft 516 kts 302°
2026-05-08 00:05 8.27288 96.85867 31252 ft 515 kts 302°
2026-05-08 00:05 8.29145 96.82778 31463 ft 515 kts 302°
2026-05-08 00:06 8.31000 96.79690 31666 ft 514 kts 302°
2026-05-08 00:06 8.32853 96.76604 31769 ft 515 kts 302°
2026-05-08 00:06 8.36563 96.70420 31862 ft 514 kts 302°
2026-05-08 00:07 8.40264 96.64249 31847 ft 513 kts 302°
2026-05-08 00:07 8.43333 96.59128 31844 ft 512 kts 302°
2026-05-08 00:08 8.47019 96.52978 31849 ft 511 kts 302°
2026-05-08 00:08 8.50702 96.46828 31847 ft 511 kts 302°
2026-05-08 00:09 8.54386 96.40675 31846 ft 512 kts 302°
2026-05-08 00:09 8.58078 96.34506 31850 ft 513 kts 302°
2026-05-08 00:10 8.61776 96.28324 31851 ft 515 kts 302°
2026-05-08 00:10 8.65479 96.22129 31851 ft 515 kts 302°
2026-05-08 00:11 8.69185 96.15927 31851 ft 515 kts 301°
2026-05-08 00:11 8.72889 96.09725 31849 ft 515 kts 301°
2026-05-08 00:12 8.76586 96.03531 31845 ft 515 kts 301°
2026-05-08 00:12 8.80282 95.97336 31851 ft 514 kts 301°
2026-05-08 00:13 8.83972 95.91140 31848 ft 514 kts 301°
2026-05-08 00:13 8.87656 95.84950 31850 ft 514 kts 301°
2026-05-08 00:14 8.91341 95.78754 31848 ft 514 kts 301°
2026-05-08 00:14 8.95000 95.72600 31850 ft 514 kts 301°
2026-05-08 00:15 8.98685 95.66399 31847 ft 515 kts 301°
2026-05-08 00:15 9.02371 95.60194 31851 ft 515 kts 301°
2026-05-08 00:16 9.06064 95.53975 31848 ft 516 kts 301°
2026-05-08 00:16 9.09758 95.47749 31850 ft 516 kts 301°
2026-05-08 00:17 9.13458 95.41511 31851 ft 517 kts 301°
2026-05-08 00:17 9.17160 95.35266 31850 ft 517 kts 301°
2026-05-08 00:18 9.20861 95.29020 31849 ft 518 kts 301°
2026-05-08 00:18 9.24562 95.22771 31847 ft 517 kts 301°
2026-05-08 00:19 9.28260 95.16524 31847 ft 517 kts 301°
2026-05-08 00:19 9.31952 95.10283 31846 ft 517 kts 301°
2026-05-08 00:20 9.35643 95.04042 31846 ft 516 kts 301°
2026-05-08 00:20 9.39330 94.97804 31846 ft 516 kts 301°
2026-05-08 00:21 9.43012 94.91571 31854 ft 515 kts 301°
2026-05-08 00:21 9.46686 94.85348 31847 ft 514 kts 301°
2026-05-08 00:22 9.50352 94.79135 31847 ft 513 kts 301°
2026-05-08 00:22 9.54010 94.72933 31852 ft 512 kts 301°
2026-05-08 00:23 9.57662 94.66739 31846 ft 512 kts 301°
2026-05-08 00:23 9.61313 94.60541 31850 ft 512 kts 301°
2026-05-08 00:24 9.64964 94.54341 31849 ft 512 kts 301°
2026-05-08 00:24 9.68614 94.48138 31850 ft 513 kts 301°
2026-05-08 00:25 9.72635 94.42178 31847 ft 513 kts 310°
2026-05-08 00:25 9.77600 94.37071 31852 ft 512 kts 320°
2026-05-08 00:26 9.83060 94.32436 31855 ft 513 kts 321°
2026-05-08 00:26 9.88543 94.27789 31854 ft 514 kts 320°
2026-05-08 00:27 9.94016 94.23101 31853 ft 515 kts 320°
2026-05-08 00:27 9.99481 94.18389 31851 ft 516 kts 320°
2026-05-08 00:28 10.04949 94.13668 31852 ft 516 kts 320°
2026-05-08 00:28 10.10422 94.08944 31852 ft 516 kts 320°
2026-05-08 00:29 10.15893 94.04222 31852 ft 516 kts 320°
2026-05-08 00:29 10.21360 93.99501 31848 ft 516 kts 320°
2026-05-08 00:30 10.26830 93.94774 31851 ft 516 kts 320°
2026-05-08 00:30 10.32304 93.90043 31853 ft 517 kts 320°
2026-05-08 00:31 10.37742 93.85340 31855 ft 517 kts 320°
2026-05-08 00:31 10.43256 93.80569 31856 ft 517 kts 320°
2026-05-08 00:32 10.48692 93.75863 31853 ft 516 kts 320°
2026-05-08 00:32 10.54154 93.71133 31850 ft 515 kts 320°
2026-05-08 00:33 10.59602 93.66412 31857 ft 514 kts 320°
2026-05-08 00:33 10.65031 93.61705 31853 ft 513 kts 320°
2026-05-08 00:34 10.70452 93.57003 31853 ft 511 kts 320°
2026-05-08 00:34 10.75860 93.52311 31855 ft 511 kts 320°
2026-05-08 00:35 10.81271 93.47613 31856 ft 511 kts 320°
2026-05-08 00:35 10.86680 93.42915 31856 ft 512 kts 320°
2026-05-08 00:36 10.92097 93.38207 31856 ft 512 kts 320°
2026-05-08 00:36 10.97515 93.33497 31857 ft 513 kts 320°
2026-05-08 00:37 11.02937 93.28780 31860 ft 513 kts 320°
2026-05-08 00:38 11.11071 93.21700 31860 ft 513 kts 320°
2026-05-08 00:38 11.16492 93.16978 31860 ft 512 kts 320°
2026-05-08 00:39 11.21907 93.12259 31860 ft 512 kts 320°
2026-05-08 00:39 11.27320 93.07539 31860 ft 512 kts 320°
2026-05-08 00:40 11.32730 93.02820 31863 ft 512 kts 320°
2026-05-08 00:40 11.38153 92.98086 31859 ft 513 kts 320°
2026-05-08 00:41 11.43574 92.93352 31862 ft 514 kts 320°
2026-05-08 00:41 11.49002 92.88609 31860 ft 514 kts 320°
2026-05-08 00:42 11.54431 92.83863 31864 ft 514 kts 320°
2026-05-08 00:42 11.59863 92.79111 31858 ft 514 kts 320°
2026-05-08 00:43 11.65267 92.74325 31859 ft 515 kts 316°
2026-05-08 00:43 11.70179 92.69075 31863 ft 515 kts 313°
2026-05-08 00:44 11.75029 92.63699 31862 ft 514 kts 313°
2026-05-08 00:44 11.79882 92.58347 31856 ft 514 kts 313°
2026-05-08 00:45 11.84749 92.53014 31862 ft 513 kts 313°
2026-05-08 00:45 11.89618 92.47693 31856 ft 512 kts 313°
2026-05-08 00:46 11.94476 92.42378 31861 ft 512 kts 313°
2026-05-08 00:46 11.99332 92.37061 31859 ft 512 kts 313°
2026-05-08 00:47 12.04187 92.31739 31859 ft 512 kts 313°
2026-05-08 00:47 12.09046 92.26412 31857 ft 513 kts 313°
2026-05-08 00:48 12.13917 92.21068 31856 ft 514 kts 313°
2026-05-08 00:48 12.18797 92.15710 31856 ft 515 kts 313°
2026-05-08 00:49 12.23685 92.10342 31856 ft 516 kts 313°
2026-05-08 00:49 12.28577 92.04964 31854 ft 517 kts 313°
2026-05-08 00:50 12.33471 91.99583 31854 ft 516 kts 313°
2026-05-08 00:50 12.38362 91.94201 31854 ft 516 kts 313°
2026-05-08 00:51 12.43245 91.88825 31859 ft 515 kts 313°
2026-05-08 00:51 12.48117 91.83458 31852 ft 514 kts 313°
2026-05-08 00:52 12.52975 91.78102 31853 ft 513 kts 313°
2026-05-08 00:52 12.57818 91.72761 31853 ft 512 kts 313°
2026-05-08 00:53 12.62656 91.67422 31853 ft 511 kts 313°
2026-05-08 00:53 12.67489 91.62084 31856 ft 511 kts 312°
2026-05-08 00:54 12.72326 91.56740 31854 ft 512 kts 312°
2026-05-08 00:54 12.77166 91.51390 31860 ft 512 kts 312°
2026-05-08 00:55 12.81190 91.46938 31858 ft 512 kts 312°
2026-05-08 00:55 12.86030 91.41581 31854 ft 512 kts 312°
2026-05-08 00:56 12.90867 91.36223 31856 ft 512 kts 312°
2026-05-08 00:56 12.95701 91.30867 31852 ft 512 kts 312°
2026-05-08 00:57 13.00532 91.25509 31855 ft 511 kts 312°
2026-05-08 00:57 13.05361 91.20152 31854 ft 511 kts 312°
2026-05-08 00:58 13.10183 91.14798 31854 ft 511 kts 312°
2026-05-08 00:58 13.15008 91.09438 31854 ft 511 kts 312°
2026-05-08 00:59 13.19836 91.04071 31856 ft 511 kts 312°
2026-05-08 00:59 13.24661 90.98703 31855 ft 512 kts 312°
2026-05-08 01:00 13.29485 90.93335 31855 ft 512 kts 312°
2026-05-08 01:00 13.34308 90.87962 31857 ft 512 kts 312°
2026-05-08 01:01 13.39131 90.82588 31861 ft 512 kts 312°
2026-05-08 01:01 13.43920 90.77247 31857 ft 512 kts 312°
2026-05-08 01:02 13.48742 90.71867 31858 ft 511 kts 312°
2026-05-08 01:02 13.53556 90.66492 31859 ft 511 kts 311°
2026-05-08 01:03 13.58363 90.61121 31856 ft 510 kts 311°
2026-05-08 01:03 13.63159 90.55759 31857 ft 509 kts 311°
2026-05-08 01:04 13.67951 90.50398 31856 ft 509 kts 311°
2026-05-08 01:04 13.72740 90.45038 31858 ft 509 kts 311°
2026-05-08 01:05 13.77527 90.39675 31857 ft 509 kts 311°
2026-05-08 01:05 13.82315 90.34308 31861 ft 509 kts 311°
2026-05-08 01:06 13.87103 90.28937 31863 ft 510 kts 311°
2026-05-08 01:06 13.91895 90.23559 31862 ft 510 kts 311°
2026-05-08 01:07 13.96687 90.18177 31865 ft 510 kts 311°
2026-05-08 01:07 14.01482 90.12788 31866 ft 510 kts 311°
2026-05-08 01:08 14.06276 90.07396 31864 ft 510 kts 311°
2026-05-08 01:08 14.11068 90.02004 31867 ft 510 kts 311°
2026-05-08 01:09 14.15855 89.96613 31867 ft 510 kts 311°
2026-05-08 01:09 14.20647 89.91212 31866 ft 510 kts 311°
2026-05-08 01:10 14.25403 89.85849 31868 ft 510 kts 311°
2026-05-08 01:10 14.30187 89.80451 31865 ft 510 kts 311°
2026-05-08 01:11 14.34970 89.75050 31866 ft 510 kts 311°
2026-05-08 01:11 14.39749 89.69650 31865 ft 509 kts 311°
2026-05-08 01:12 14.44523 89.64252 31866 ft 509 kts 311°
2026-05-08 01:12 14.49295 89.58852 31867 ft 509 kts 311°
2026-05-08 01:13 14.54067 89.53448 31868 ft 509 kts 311°
2026-05-08 01:13 14.58837 89.48043 31872 ft 509 kts 311°
2026-05-08 01:14 14.63607 89.42634 31871 ft 510 kts 311°
2026-05-08 01:14 14.68379 89.37218 31873 ft 510 kts 311°
2026-05-08 01:15 14.73152 89.31798 31870 ft 510 kts 311°
2026-05-08 01:15 14.78021 89.26464 31870 ft 510 kts 313°
2026-05-08 01:16 14.82996 89.21229 31869 ft 511 kts 313°
2026-05-08 01:16 14.87972 89.15985 31869 ft 511 kts 313°
2026-05-08 01:17 14.92930 89.10714 31865 ft 511 kts 313°
2026-05-08 01:17 14.97877 89.05432 31871 ft 511 kts 312°
2026-05-08 01:18 15.02813 89.00155 31869 ft 510 kts 312°
2026-05-08 01:18 15.07747 88.94880 31871 ft 510 kts 312°
2026-05-08 01:19 15.12674 88.89610 31871 ft 509 kts 312°
2026-05-08 01:19 15.17598 88.84340 31871 ft 509 kts 312°
2026-05-08 01:20 15.22519 88.79069 31871 ft 509 kts 312°
2026-05-08 01:20 15.27438 88.73796 31872 ft 509 kts 312°
2026-05-08 01:21 15.32328 88.68550 31872 ft 510 kts 312°
2026-05-08 01:21 15.37251 88.63265 31871 ft 510 kts 312°
2026-05-08 01:22 15.42176 88.57976 31870 ft 510 kts 312°
2026-05-08 01:22 15.47101 88.52681 31872 ft 510 kts 312°
2026-05-08 01:23 15.52029 88.47379 31876 ft 510 kts 312°
2026-05-08 01:23 15.56955 88.42076 31877 ft 510 kts 311°
2026-05-08 01:24 15.61879 88.36772 31873 ft 510 kts 311°
2026-05-08 01:24 15.66798 88.31469 31879 ft 510 kts 311°
2026-05-08 01:25 15.71709 88.26169 31875 ft 509 kts 311°
2026-05-08 01:25 15.76613 88.20874 31874 ft 508 kts 311°
2026-05-08 01:26 15.81511 88.15582 31880 ft 508 kts 311°
2026-05-08 01:26 15.86372 88.10325 31874 ft 508 kts 311°
2026-05-08 01:27 15.91259 88.05036 31881 ft 507 kts 311°
2026-05-08 01:27 15.96146 87.99744 31881 ft 507 kts 311°
2026-05-08 01:28 16.01028 87.94452 31887 ft 507 kts 311°
2026-05-08 01:28 16.05900 87.89169 31869 ft 506 kts 311°
2026-05-08 01:29 16.10760 87.83893 31873 ft 505 kts 311°
2026-05-08 01:29 16.15610 87.78624 31886 ft 504 kts 311°
2026-05-08 01:30 16.20455 87.73358 31885 ft 504 kts 311°
2026-05-08 01:30 16.25298 87.68088 31887 ft 503 kts 311°
2026-05-08 01:31 16.30136 87.62820 31888 ft 503 kts 311°
2026-05-08 01:31 16.34975 87.57548 31892 ft 503 kts 311°
2026-05-08 01:32 16.39805 87.52281 31872 ft 503 kts 311°
2026-05-08 01:32 16.44628 87.47018 31887 ft 502 kts 310°
2026-05-08 01:33 16.49443 87.41759 31893 ft 501 kts 311°
2026-05-08 01:33 16.54252 87.36503 31879 ft 501 kts 310°
2026-05-08 01:34 16.59056 87.31248 31884 ft 501 kts 310°
2026-05-08 01:34 16.63858 87.25990 31888 ft 500 kts 310°
2026-05-08 01:35 16.68658 87.20731 31893 ft 501 kts 310°
2026-05-08 01:35 16.73425 87.15505 31888 ft 501 kts 310°
2026-05-08 01:36 16.78265 87.10280 31885 ft 501 kts 311°
2026-05-08 01:36 16.83146 87.05088 31895 ft 501 kts 311°
2026-05-08 01:37 16.88021 86.99894 31887 ft 501 kts 311°
2026-05-08 01:37 16.92888 86.94690 31894 ft 501 kts 311°
2026-05-08 01:38 16.97749 86.89480 31892 ft 501 kts 311°
2026-05-08 01:38 17.02610 86.84265 31905 ft 501 kts 311°
2026-05-08 01:39 17.07480 86.79038 31897 ft 502 kts 311°
2026-05-08 01:39 17.12347 86.73810 31890 ft 502 kts 311°
2026-05-08 01:40 17.17216 86.68576 31895 ft 502 kts 311°
2026-05-08 01:40 17.22079 86.63344 31892 ft 502 kts 311°
2026-05-08 01:41 17.26940 86.58110 31893 ft 501 kts 311°
2026-05-08 01:41 17.31798 86.52875 31907 ft 501 kts 311°
2026-05-08 01:42 17.36656 86.47636 31903 ft 501 kts 311°
2026-05-08 01:42 17.41503 86.42405 31903 ft 500 kts 310°
2026-05-08 01:43 17.46341 86.37179 31900 ft 499 kts 310°
2026-05-08 01:43 17.51159 86.31970 31900 ft 498 kts 310°
2026-05-08 01:44 17.55940 86.26797 31898 ft 497 kts 310°
2026-05-08 01:44 17.60745 86.21594 31902 ft 497 kts 310°
2026-05-08 01:45 17.64770 86.17232 31908 ft 497 kts 310°
2026-05-08 01:45 17.69574 86.12022 31908 ft 497 kts 310°
2026-05-08 01:46 17.74375 86.06811 31913 ft 497 kts 310°
2026-05-08 01:46 17.79177 86.01595 31902 ft 497 kts 310°
2026-05-08 01:47 17.83938 85.96419 31904 ft 496 kts 310°
2026-05-08 01:47 17.88726 85.91210 31906 ft 495 kts 310°
2026-05-08 01:48 17.95898 85.83398 31906 ft 495 kts 310°
2026-05-08 01:48 18.00674 85.78191 31907 ft 495 kts 310°
2026-05-08 01:49 18.05451 85.72978 31925 ft 495 kts 310°
2026-05-08 01:49 18.10223 85.67766 31913 ft 495 kts 310°
2026-05-08 01:50 18.14989 85.62556 31904 ft 494 kts 310°
2026-05-08 01:50 18.19744 85.57354 31907 ft 493 kts 310°
2026-05-08 01:51 18.24494 85.52154 31908 ft 492 kts 310°
2026-05-08 01:51 18.29235 85.46958 31910 ft 492 kts 310°
2026-05-08 01:52 18.33943 85.41795 31908 ft 492 kts 310°
2026-05-08 01:52 18.38680 85.36595 31917 ft 492 kts 310°
2026-05-08 01:53 18.43414 85.31395 31908 ft 492 kts 309°
2026-05-08 01:53 18.48141 85.26197 31902 ft 491 kts 309°
2026-05-08 01:54 18.52855 85.21009 31905 ft 490 kts 309°
2026-05-08 01:54 18.57561 85.15826 31907 ft 489 kts 309°
2026-05-08 01:55 18.62266 85.10639 31910 ft 489 kts 309°
2026-05-08 01:55 18.66967 85.05450 31907 ft 489 kts 309°
2026-05-08 01:56 18.71665 85.00262 31906 ft 489 kts 309°
2026-05-08 01:56 18.76364 84.95071 31906 ft 489 kts 309°
2026-05-08 01:57 18.81062 84.89886 31910 ft 489 kts 309°
2026-05-08 01:57 18.85758 84.84696 31909 ft 489 kts 309°
2026-05-08 01:58 18.90448 84.79501 31910 ft 489 kts 309°
2026-05-08 01:58 18.95137 84.74300 31910 ft 489 kts 309°
2026-05-08 01:59 18.99823 84.69099 31910 ft 489 kts 309°
2026-05-08 01:59 19.04508 84.63894 31937 ft 489 kts 309°
2026-05-08 02:00 19.09190 84.58689 31923 ft 488 kts 309°
2026-05-08 02:00 19.13837 84.53518 31923 ft 488 kts 309°
2026-05-08 02:01 19.18538 84.48281 31934 ft 487 kts 309°
2026-05-08 02:01 19.23171 84.43115 31938 ft 487 kts 309°
2026-05-08 02:02 19.27825 84.37921 31934 ft 486 kts 309°
2026-05-08 02:02 19.32479 84.32724 31942 ft 487 kts 309°
2026-05-08 02:03 19.37135 84.27519 31963 ft 487 kts 309°
2026-05-08 02:03 19.41789 84.22310 31953 ft 487 kts 309°
2026-05-08 02:04 19.46501 84.17140 31944 ft 488 kts 310°
2026-05-08 02:04 19.51281 84.12033 31951 ft 488 kts 310°
2026-05-08 02:05 19.56058 84.06925 31959 ft 487 kts 310°
2026-05-08 02:05 19.60818 84.01805 31959 ft 488 kts 310°
2026-05-08 02:06 19.65579 83.96668 31946 ft 488 kts 310°
2026-05-08 02:06 19.70337 83.91530 31963 ft 488 kts 310°
2026-05-08 02:07 19.75087 83.86396 31955 ft 487 kts 310°
2026-05-08 02:07 19.79832 83.81266 31946 ft 487 kts 310°
2026-05-08 02:08 19.84568 83.76141 31948 ft 486 kts 310°
2026-05-08 02:08 19.89296 83.71018 31931 ft 486 kts 310°
2026-05-08 02:09 19.93990 83.65927 31943 ft 486 kts 310°
2026-05-08 02:09 19.98723 83.60790 31930 ft 486 kts 310°
2026-05-08 02:10 20.03451 83.55654 31941 ft 486 kts 310°
2026-05-08 02:10 20.08181 83.50508 31934 ft 486 kts 310°
2026-05-08 02:11 20.12898 83.45374 31922 ft 485 kts 309°
2026-05-08 02:11 20.17612 83.40240 31917 ft 485 kts 309°
2026-05-08 02:12 20.22318 83.35109 31910 ft 484 kts 309°
2026-05-08 02:12 20.27023 83.29973 31914 ft 484 kts 309°
2026-05-08 02:13 20.31729 83.24832 31906 ft 484 kts 309°
2026-05-08 02:13 20.36433 83.19689 31922 ft 485 kts 309°
2026-05-08 02:14 20.41138 83.14539 31915 ft 485 kts 309°
2026-05-08 02:14 20.45837 83.09390 31910 ft 484 kts 310°
2026-05-08 02:15 20.50532 83.04242 31918 ft 484 kts 309°
2026-05-08 02:15 20.55219 82.99098 31919 ft 483 kts 309°
2026-05-08 02:16 20.59905 82.93949 31921 ft 483 kts 309°
2026-05-08 02:16 20.64585 82.88795 31921 ft 483 kts 309°
2026-05-08 02:17 20.69261 82.83640 31922 ft 483 kts 309°
2026-05-08 02:17 20.73933 82.78484 31923 ft 483 kts 309°
2026-05-08 02:18 20.78568 82.73365 31913 ft 482 kts 309°
2026-05-08 02:18 20.83221 82.68218 31919 ft 481 kts 309°
2026-05-08 02:19 20.87867 82.63076 31937 ft 480 kts 309°
2026-05-08 02:19 20.92512 82.57941 31923 ft 480 kts 310°
2026-05-08 02:20 20.97168 82.52823 31921 ft 480 kts 310°
2026-05-08 02:20 21.01828 82.47698 31932 ft 480 kts 309°
2026-05-08 02:21 21.06479 82.42574 31929 ft 479 kts 309°
2026-05-08 02:21 21.11121 82.37452 31917 ft 479 kts 309°
2026-05-08 02:22 21.15758 82.32330 31922 ft 478 kts 309°
2026-05-08 02:22 21.20389 82.27209 31929 ft 479 kts 309°
2026-05-08 02:23 21.25025 82.22078 31930 ft 479 kts 309°
2026-05-08 02:23 21.29662 82.16941 31954 ft 480 kts 309°
2026-05-08 02:24 21.34302 82.11797 31930 ft 479 kts 309°
2026-05-08 02:24 21.38923 82.06667 31921 ft 477 kts 309°
2026-05-08 02:25 21.43530 82.01549 31919 ft 476 kts 309°
2026-05-08 02:25 21.48157 81.96472 31916 ft 476 kts 310°
2026-05-08 02:26 21.52852 81.91465 31924 ft 475 kts 310°
2026-05-08 02:26 21.57544 81.86454 31923 ft 476 kts 310°
2026-05-08 02:27 21.62196 81.81459 31944 ft 476 kts 310°
2026-05-08 02:27 21.66877 81.76421 31930 ft 476 kts 310°
2026-05-08 02:28 21.71552 81.71387 31919 ft 475 kts 310°
2026-05-08 02:28 21.76216 81.66359 31926 ft 474 kts 310°
2026-05-08 02:29 21.80855 81.61325 31925 ft 473 kts 310°
2026-05-08 02:29 21.85433 81.56255 31931 ft 472 kts 309°
2026-05-08 02:30 21.90015 81.51181 31925 ft 472 kts 310°
2026-05-08 02:30 21.94588 81.46102 31923 ft 472 kts 309°
2026-05-08 02:31 21.99096 81.40956 31924 ft 472 kts 309°
2026-05-08 02:31 22.03599 81.35797 31920 ft 473 kts 309°
2026-05-08 02:32 22.08114 81.30642 31922 ft 473 kts 309°
2026-05-08 02:32 22.12653 81.25496 31927 ft 474 kts 309°
2026-05-08 02:33 22.17212 81.20429 31933 ft 474 kts 310°
2026-05-08 02:33 22.21805 81.15327 31943 ft 474 kts 310°
2026-05-08 02:34 22.26391 81.10213 31936 ft 474 kts 309°
2026-05-08 02:34 22.30968 81.05098 31940 ft 473 kts 309°
2026-05-08 02:35 22.34792 81.00819 31932 ft 472 kts 309°
2026-05-08 02:35 22.39347 80.95718 31934 ft 471 kts 309°
2026-05-08 02:36 22.43867 80.90648 31929 ft 471 kts 309°
2026-05-08 02:36 22.48414 80.85544 31932 ft 471 kts 309°
2026-05-08 02:37 22.52965 80.80431 31939 ft 472 kts 309°
2026-05-08 02:37 22.57515 80.75314 31921 ft 472 kts 309°
2026-05-08 02:38 22.62059 80.70199 31912 ft 471 kts 309°
2026-05-08 02:38 22.66598 80.65085 31915 ft 470 kts 309°
2026-05-08 02:39 22.71127 80.59976 31911 ft 470 kts 309°
2026-05-08 02:39 22.75654 80.54863 31907 ft 470 kts 309°
2026-05-08 02:40 22.80179 80.49748 31911 ft 470 kts 309°
2026-05-08 02:40 22.84702 80.44631 31910 ft 470 kts 309°
2026-05-08 02:41 22.89212 80.39524 31910 ft 468 kts 309°
2026-05-08 02:41 22.93711 80.34421 31903 ft 467 kts 309°
2026-05-08 02:42 22.98198 80.29328 31900 ft 467 kts 309°
2026-05-08 02:42 23.02677 80.24239 31912 ft 466 kts 309°
2026-05-08 02:43 23.07154 80.19146 31930 ft 466 kts 309°
2026-05-08 02:43 23.11630 80.14049 31935 ft 466 kts 309°
2026-05-08 02:44 23.16107 80.08944 31946 ft 466 kts 309°
2026-05-08 02:44 23.20104 80.03470 31933 ft 460 kts 300°
2026-05-08 02:45 23.23338 79.97558 31882 ft 457 kts 297°
2026-05-08 02:45 23.26578 79.91609 31882 ft 457 kts 298°
2026-05-08 02:46 23.29830 79.85671 31883 ft 457 kts 298°
2026-05-08 02:46 23.33089 79.79728 31882 ft 457 kts 298°
2026-05-08 02:47 23.36346 79.73781 31884 ft 458 kts 298°
2026-05-08 02:47 23.39605 79.67823 31886 ft 458 kts 298°
2026-05-08 02:48 23.42860 79.61864 31895 ft 458 kts 298°
2026-05-08 02:48 23.46107 79.55916 31892 ft 456 kts 298°
2026-05-08 02:49 23.49341 79.49983 31888 ft 455 kts 298°
2026-05-08 02:49 23.52560 79.44069 31896 ft 453 kts 298°
2026-05-08 02:50 23.55773 79.38158 31899 ft 453 kts 298°
2026-05-08 02:50 23.58980 79.32252 31903 ft 453 kts 298°
2026-05-08 02:51 23.62186 79.26342 31907 ft 453 kts 298°
2026-05-08 02:51 23.65393 79.20422 31910 ft 454 kts 298°
2026-05-08 02:52 23.68604 79.14489 31934 ft 454 kts 298°
2026-05-08 02:52 23.71818 79.08542 31922 ft 455 kts 298°
2026-05-08 02:53 23.75031 79.02590 31915 ft 455 kts 299°
2026-05-08 02:53 23.78240 78.96639 31932 ft 455 kts 299°
2026-05-08 02:54 23.81449 78.90680 31926 ft 455 kts 299°
2026-05-08 02:54 23.84653 78.84723 31928 ft 455 kts 299°
2026-05-08 02:55 23.89429 78.75830 31931 ft 454 kts 299°
2026-05-08 02:56 23.92624 78.69872 31932 ft 454 kts 299°
2026-05-08 02:56 23.95815 78.63912 31933 ft 454 kts 299°
2026-05-08 02:57 23.99007 78.57945 31935 ft 455 kts 299°
2026-05-08 02:57 24.02209 78.51981 31930 ft 455 kts 300°
2026-05-08 02:58 24.05470 78.46052 31926 ft 455 kts 300°
2026-05-08 02:58 24.08742 78.40123 31926 ft 455 kts 300°
2026-05-08 02:59 24.12005 78.34188 31919 ft 455 kts 300°
2026-05-08 02:59 24.15258 78.28251 31921 ft 455 kts 300°
2026-05-08 03:00 24.18488 78.22346 31917 ft 455 kts 300°
2026-05-08 03:00 24.21736 78.16399 31917 ft 455 kts 300°
2026-05-08 03:01 24.24983 78.10449 31924 ft 455 kts 300°
2026-05-08 03:01 24.28230 78.04493 31923 ft 455 kts 300°
2026-05-08 03:02 24.31474 77.98533 31915 ft 455 kts 300°
2026-05-08 03:02 24.34716 77.92570 31911 ft 455 kts 300°
2026-05-08 03:03 24.37954 77.86608 31919 ft 455 kts 300°
2026-05-08 03:03 24.41185 77.80650 31923 ft 455 kts 300°
2026-05-08 03:04 24.44416 77.74686 31925 ft 455 kts 300°
2026-05-08 03:04 24.47645 77.68717 31928 ft 455 kts 300°
2026-05-08 03:05 24.50873 77.62744 31933 ft 455 kts 300°
2026-05-08 03:05 24.54099 77.56766 31922 ft 455 kts 300°
2026-05-08 03:06 24.57316 77.50796 31918 ft 454 kts 300°
2026-05-08 03:06 24.60524 77.44838 31919 ft 452 kts 300°
2026-05-08 03:07 24.63723 77.38888 31923 ft 452 kts 300°
2026-05-08 03:07 24.66914 77.32945 31920 ft 452 kts 300°
2026-05-08 03:08 24.70105 77.26995 31915 ft 452 kts 300°
2026-05-08 03:08 24.73330 77.21061 31907 ft 452 kts 301°
2026-05-08 03:09 24.76570 77.15147 31913 ft 451 kts 301°
2026-05-08 03:09 24.79801 77.09232 31913 ft 451 kts 300°
2026-05-08 03:10 24.83023 77.03316 31906 ft 450 kts 300°
2026-05-08 03:10 24.86239 76.97399 31909 ft 450 kts 300°
2026-05-08 03:11 24.89452 76.91481 31904 ft 450 kts 300°
2026-05-08 03:11 24.92664 76.85559 31901 ft 450 kts 300°
2026-05-08 03:12 24.95870 76.79638 31904 ft 450 kts 300°
2026-05-08 03:12 24.97475 76.76672 32015 ft 451 kts 300°
2026-05-08 03:12 24.99080 76.73708 32306 ft 449 kts 301°
2026-05-08 03:12 25.00772 76.70830 32657 ft 446 kts 305°
2026-05-08 03:13 25.02652 76.68123 33011 ft 443 kts 307°
2026-05-08 03:13 25.04540 76.65446 33380 ft 440 kts 307°
2026-05-08 03:13 25.06412 76.62783 33671 ft 438 kts 306°
2026-05-08 03:13 25.08248 76.60161 33820 ft 439 kts 306°
2026-05-08 03:14 25.10112 76.57489 33856 ft 439 kts 306°
2026-05-08 03:14 25.13834 76.52139 33885 ft 439 kts 306°
2026-05-08 03:15 25.17538 76.46803 33877 ft 437 kts 306°
2026-05-08 03:15 25.21222 76.41491 33889 ft 435 kts 306°
2026-05-08 03:16 25.24894 76.36190 33890 ft 434 kts 306°
2026-05-08 03:16 25.28564 76.30886 33892 ft 435 kts 306°
2026-05-08 03:17 25.32239 76.25571 33901 ft 436 kts 306°
2026-05-08 03:17 25.35926 76.20229 33898 ft 438 kts 306°
2026-05-08 03:18 25.39627 76.14864 33900 ft 439 kts 306°
2026-05-08 03:18 25.43333 76.09483 33889 ft 440 kts 306°
2026-05-08 03:19 25.47036 76.04102 33889 ft 440 kts 306°
2026-05-08 03:19 25.50738 75.98717 33884 ft 439 kts 306°
2026-05-08 03:20 25.54431 75.93337 33882 ft 439 kts 306°
2026-05-08 03:20 25.58119 75.87960 33909 ft 439 kts 306°
2026-05-08 03:21 25.61808 75.82573 33885 ft 438 kts 306°
2026-05-08 03:21 25.65488 75.77194 33882 ft 438 kts 306°
2026-05-08 03:22 25.69138 75.71853 33885 ft 437 kts 306°
2026-05-08 03:22 25.72803 75.66484 33888 ft 436 kts 306°
2026-05-08 03:23 25.76464 75.61113 33890 ft 436 kts 306°
2026-05-08 03:23 25.80123 75.55739 33888 ft 436 kts 306°
2026-05-08 03:24 25.83780 75.50363 33912 ft 437 kts 306°
2026-05-08 03:24 25.86823 75.45884 33888 ft 437 kts 306°
2026-05-08 03:25 25.90398 75.40438 33876 ft 436 kts 304°
2026-05-08 03:25 25.93766 75.34841 33896 ft 436 kts 303°
2026-05-08 03:26 25.97126 75.29241 33899 ft 435 kts 303°
2026-05-08 03:26 26.00511 75.23660 33878 ft 435 kts 303°
2026-05-08 03:27 26.03902 75.18089 33869 ft 435 kts 303°
2026-05-08 03:27 26.07290 75.12516 33889 ft 435 kts 303°
2026-05-08 03:28 26.10675 75.06939 33886 ft 436 kts 303°
2026-05-08 03:28 26.14066 75.01344 33878 ft 436 kts 304°
2026-05-08 03:29 26.17433 74.95724 33876 ft 436 kts 302°
2026-05-08 03:29 26.20398 74.89833 33878 ft 436 kts 299°
2026-05-08 03:30 26.24789 74.80945 33875 ft 437 kts 299°
2026-05-08 03:31 26.30655 74.69099 33872 ft 437 kts 299°
2026-05-08 03:32 26.35053 74.60202 33884 ft 437 kts 299°
2026-05-08 03:32 26.37987 74.54258 33874 ft 438 kts 299°
2026-05-08 03:33 26.40919 74.48308 33859 ft 438 kts 299°
2026-05-08 03:33 26.43848 74.42357 33867 ft 437 kts 299°
2026-05-08 03:34 26.46754 74.36442 33865 ft 437 kts 299°
2026-05-08 03:34 26.49674 74.30494 33851 ft 437 kts 299°
2026-05-08 03:35 26.52588 74.24547 33855 ft 436 kts 299°
2026-05-08 03:35 26.55497 74.18605 33849 ft 436 kts 299°
2026-05-08 03:36 26.58432 74.12678 33866 ft 436 kts 300°
2026-05-08 03:36 26.61379 74.06757 33842 ft 437 kts 300°
2026-05-08 03:37 26.64329 74.00816 33839 ft 437 kts 300°
2026-05-08 03:37 26.67271 73.94875 33834 ft 437 kts 300°
2026-05-08 03:38 26.70207 73.88934 33827 ft 436 kts 300°
2026-05-08 03:38 26.73139 73.82994 33826 ft 436 kts 300°
2026-05-08 03:39 26.76067 73.77054 33827 ft 436 kts 300°
2026-05-08 03:39 26.78993 73.71110 33825 ft 436 kts 300°
2026-05-08 03:40 26.81918 73.65160 33836 ft 436 kts 300°
2026-05-08 03:40 26.84841 73.59206 33823 ft 436 kts 300°
2026-05-08 03:41 26.87758 73.53256 33819 ft 436 kts 300°
2026-05-08 03:41 26.90673 73.47300 33816 ft 435 kts 300°
2026-05-08 03:42 26.93582 73.41350 33804 ft 435 kts 300°
2026-05-08 03:42 26.96485 73.35402 33812 ft 435 kts 300°
2026-05-08 03:43 26.99357 73.29432 33786 ft 435 kts 299°
2026-05-08 03:43 27.02215 73.23456 33805 ft 435 kts 299°
2026-05-08 03:44 27.05070 73.17481 33815 ft 435 kts 299°
2026-05-08 03:44 27.07928 73.11499 33812 ft 435 kts 300°
2026-05-08 03:45 27.10765 73.05555 33793 ft 435 kts 300°
2026-05-08 03:45 27.13619 72.99569 33803 ft 435 kts 300°
2026-05-08 03:46 27.16468 72.93583 33795 ft 435 kts 300°
2026-05-08 03:46 27.19313 72.87597 33805 ft 434 kts 300°
2026-05-08 03:47 27.22153 72.81614 33803 ft 434 kts 300°
2026-05-08 03:47 27.24990 72.75627 33804 ft 434 kts 300°
2026-05-08 03:48 27.27826 72.69635 33799 ft 434 kts 299°
2026-05-08 03:48 27.30658 72.63643 33800 ft 434 kts 299°
2026-05-08 03:49 27.33488 72.57648 33786 ft 434 kts 300°
2026-05-08 03:49 27.36314 72.51652 33794 ft 434 kts 300°
2026-05-08 03:50 27.39134 72.45660 33804 ft 433 kts 300°
2026-05-08 03:50 27.41951 72.39666 33800 ft 433 kts 299°
2026-05-08 03:51 27.44769 72.33661 33801 ft 434 kts 299°
2026-05-08 03:51 27.47582 72.27657 33799 ft 434 kts 299°
2026-05-08 03:52 27.50392 72.21652 33804 ft 433 kts 300°
2026-05-08 03:52 27.53200 72.15643 33795 ft 433 kts 300°
2026-05-08 03:53 27.56005 72.09631 33801 ft 433 kts 300°
2026-05-08 03:53 27.58806 72.03622 33800 ft 433 kts 300°
2026-05-08 03:54 27.61605 71.97604 33795 ft 433 kts 300°
2026-05-08 03:54 27.64399 71.91592 33798 ft 433 kts 300°
2026-05-08 03:55 27.67190 71.85575 33787 ft 432 kts 299°
2026-05-08 03:55 27.69975 71.79564 33781 ft 432 kts 299°
2026-05-08 03:56 27.72755 71.73554 33802 ft 432 kts 299°
2026-05-08 03:56 27.75536 71.67534 33793 ft 432 kts 299°
2026-05-08 03:57 27.78315 71.61508 33789 ft 433 kts 299°
2026-05-08 03:57 27.81093 71.55478 33780 ft 433 kts 299°
2026-05-08 03:58 27.83846 71.49490 33783 ft 433 kts 299°
2026-05-08 03:58 27.86620 71.43451 33780 ft 433 kts 299°
2026-05-08 03:59 27.89336 71.37378 33781 ft 433 kts 298°
2026-05-08 03:59 27.91987 71.31262 33782 ft 433 kts 298°
2026-05-08 04:00 27.94637 71.25139 33791 ft 433 kts 298°
2026-05-08 04:00 27.97294 71.19019 33790 ft 434 kts 298°
2026-05-08 04:01 27.99954 71.12892 33787 ft 434 kts 298°
2026-05-08 04:01 28.02613 71.06762 33782 ft 434 kts 298°
2026-05-08 04:02 28.05268 71.00629 33781 ft 434 kts 298°
2026-05-08 04:02 28.07922 70.94489 33780 ft 434 kts 298°
2026-05-08 04:03 28.10572 70.88349 33780 ft 434 kts 298°
2026-05-08 04:03 28.14541 70.79136 33779 ft 434 kts 298°
2026-05-08 04:04 28.17168 70.73028 33776 ft 434 kts 298°
2026-05-08 04:04 28.19809 70.66876 33779 ft 434 kts 298°
2026-05-08 04:05 28.22449 70.60717 33777 ft 434 kts 298°
2026-05-08 04:05 28.25086 70.54553 33778 ft 434 kts 298°
2026-05-08 04:06 28.27719 70.48393 33790 ft 434 kts 298°
2026-05-08 04:06 28.30347 70.42231 33785 ft 434 kts 298°
2026-05-08 04:07 28.32975 70.36065 33775 ft 434 kts 298°
2026-05-08 04:07 28.35996 70.30225 33806 ft 428 kts 314°
2026-05-08 04:08 28.40822 70.26258 33802 ft 433 kts 331°
2026-05-08 04:08 28.43677 70.25135 33786 ft 437 kts 342°
2026-05-08 04:08 28.46638 70.24343 33782 ft 439 kts 342°
2026-05-08 04:09 28.52603 70.22753 33779 ft 442 kts 342°
2026-05-08 04:09 28.58589 70.21112 33786 ft 443 kts 342°
2026-05-08 04:10 28.64582 70.19431 33787 ft 444 kts 342°
2026-05-08 04:10 28.70578 70.17734 33790 ft 444 kts 342°
2026-05-08 04:11 28.75561 70.16321 33790 ft 443 kts 342°
2026-05-08 04:11 28.81542 70.14623 33791 ft 442 kts 342°
2026-05-08 04:12 28.87509 70.12928 33790 ft 442 kts 342°
2026-05-08 04:12 28.93471 70.11233 33804 ft 441 kts 342°
2026-05-08 04:13 28.99422 70.09538 33802 ft 441 kts 342°
2026-05-08 04:13 29.05372 70.07842 33803 ft 441 kts 342°
2026-05-08 04:14 29.11322 70.06144 33814 ft 441 kts 342°
2026-05-08 04:14 29.17274 70.04443 33824 ft 441 kts 342°
2026-05-08 04:15 29.23229 70.02739 33823 ft 441 kts 342°
2026-05-08 04:15 29.29192 70.01031 33823 ft 442 kts 342°
2026-05-08 04:16 29.35153 69.99322 33829 ft 442 kts 342°
2026-05-08 04:16 29.41123 69.97608 33831 ft 442 kts 342°
2026-05-08 04:17 29.47096 69.95890 33841 ft 443 kts 342°
2026-05-08 04:17 29.53071 69.94172 33840 ft 442 kts 342°
2026-05-08 04:18 29.58998 69.92463 33838 ft 442 kts 341°
2026-05-08 04:18 29.64958 69.90744 33860 ft 442 kts 342°
2026-05-08 04:19 29.70923 69.89020 33861 ft 442 kts 342°
2026-05-08 04:19 29.76889 69.87294 33878 ft 442 kts 342°
2026-05-08 04:20 29.82855 69.85567 33877 ft 442 kts 342°
2026-05-08 04:20 29.88827 69.83836 33875 ft 442 kts 341°
2026-05-08 04:21 29.94784 69.82106 33912 ft 442 kts 342°
2026-05-08 04:21 30.00748 69.80373 33892 ft 442 kts 342°
2026-05-08 04:22 30.06714 69.78637 33906 ft 442 kts 342°
2026-05-08 04:22 30.12674 69.76900 33912 ft 442 kts 342°
2026-05-08 04:23 30.18629 69.75162 33937 ft 441 kts 342°
2026-05-08 04:23 30.24587 69.73421 33921 ft 442 kts 342°
2026-05-08 04:24 30.30589 69.71840 33917 ft 443 kts 344°
2026-05-08 04:24 30.36628 69.70414 33933 ft 443 kts 344°
2026-05-08 04:25 30.42675 69.68972 33917 ft 444 kts 344°
2026-05-08 04:25 30.48711 69.67505 33923 ft 443 kts 344°
2026-05-08 04:26 30.54699 69.66037 33937 ft 442 kts 344°
2026-05-08 04:26 30.60723 69.64555 33931 ft 442 kts 344°
2026-05-08 04:27 30.66741 69.63075 33936 ft 442 kts 344°
2026-05-08 04:27 30.72756 69.61593 33955 ft 442 kts 344°
2026-05-08 04:28 30.78785 69.60105 33944 ft 443 kts 344°
2026-05-08 04:28 30.84814 69.58617 33955 ft 443 kts 344°
2026-05-08 04:29 30.90846 69.57126 33946 ft 443 kts 344°
2026-05-08 04:29 30.96880 69.55633 33973 ft 443 kts 344°
2026-05-08 04:30 31.02921 69.54135 33960 ft 444 kts 344°
2026-05-08 04:30 31.08960 69.52636 33934 ft 444 kts 344°
2026-05-08 04:31 31.15002 69.51135 33954 ft 444 kts 344°
2026-05-08 04:31 31.21038 69.49632 33977 ft 444 kts 345°
2026-05-08 04:32 31.27089 69.48124 33969 ft 445 kts 345°
2026-05-08 04:32 31.33211 69.47085 33952 ft 451 kts 359°
2026-05-08 04:33 31.39403 69.48676 33952 ft 465 kts 17°
2026-05-08 04:33 31.45041 69.52436 33961 ft 472 kts 25°
2026-05-08 04:34 31.50630 69.56513 33958 ft 474 kts 25°
2026-05-08 04:34 31.56249 69.60558 33958 ft 475 kts 25°
2026-05-08 04:35 31.61895 69.64569 33954 ft 474 kts 25°
2026-05-08 04:35 31.67542 69.68571 33931 ft 474 kts 25°
2026-05-08 04:36 31.73179 69.72570 33942 ft 473 kts 25°
2026-05-08 04:36 31.78809 69.76571 33951 ft 473 kts 25°
2026-05-08 04:37 31.84433 69.80578 33915 ft 472 kts 25°
2026-05-08 04:37 31.90044 69.84579 33929 ft 472 kts 25°
2026-05-08 04:38 31.95668 69.88594 33928 ft 473 kts 25°
2026-05-08 04:38 32.01292 69.92618 33922 ft 473 kts 25°
2026-05-08 04:39 32.06914 69.96646 33910 ft 473 kts 25°
2026-05-08 04:39 32.12545 70.00682 33916 ft 474 kts 25°
2026-05-08 04:40 32.18184 70.04734 33911 ft 475 kts 25°
2026-05-08 04:40 32.23829 70.08796 33894 ft 475 kts 25°
2026-05-08 04:41 32.29478 70.12868 33905 ft 476 kts 25°
2026-05-08 04:41 32.35127 70.16944 33901 ft 476 kts 25°
2026-05-08 04:42 32.40802 70.20984 33907 ft 476 kts 24°
2026-05-08 04:42 32.46472 70.24909 33906 ft 476 kts 24°
2026-05-08 04:43 32.52186 70.28874 33902 ft 476 kts 24°
2026-05-08 04:43 32.57892 70.32863 33897 ft 476 kts 24°
2026-05-08 04:44 32.63594 70.36854 33875 ft 476 kts 24°
2026-05-08 04:44 32.69222 70.41014 33891 ft 478 kts 27°
2026-05-08 04:45 32.74791 70.45315 33886 ft 477 kts 27°
2026-05-08 04:45 32.80365 70.49584 33880 ft 477 kts 27°
2026-05-08 04:46 32.85952 70.53837 33878 ft 476 kts 27°
2026-05-08 04:46 32.91647 70.57742 33878 ft 465 kts 14°
2026-05-08 04:47 32.97876 70.59218 33890 ft 453 kts 358°
2026-05-08 04:47 33.04111 70.58703 33887 ft 450 kts 351°
2026-05-08 04:48 33.10360 70.58028 33902 ft 452 kts 351°
2026-05-08 04:48 33.16607 70.57400 33900 ft 454 kts 352°
2026-05-08 04:49 33.22924 70.56791 33900 ft 456 kts 352°
2026-05-08 04:49 33.29250 70.56188 33925 ft 456 kts 352°
2026-05-08 04:50 33.35577 70.55582 33905 ft 456 kts 352°
2026-05-08 04:50 33.41895 70.54976 33954 ft 456 kts 352°
2026-05-08 04:51 33.48214 70.54367 33952 ft 455 kts 352°
2026-05-08 04:51 33.54511 70.53761 33955 ft 453 kts 352°
2026-05-08 04:52 33.60800 70.53152 33971 ft 453 kts 352°
2026-05-08 04:52 33.67076 70.52545 33965 ft 452 kts 352°
2026-05-08 04:53 33.73337 70.51939 34000 ft 452 kts 352°
2026-05-08 04:53 33.79599 70.51332 33991 ft 451 kts 352°
2026-05-08 04:54 33.85860 70.50723 34006 ft 451 kts 352°
2026-05-08 04:54 33.88934 70.50175 33980 ft 444 kts 340°
2026-05-08 04:54 33.91687 70.48661 34018 ft 441 kts 326°
2026-05-08 04:55 33.96194 70.43671 33983 ft 444 kts 306°
2026-05-08 04:55 33.99129 70.37100 33981 ft 449 kts 299°
2026-05-08 04:56 34.01987 70.30372 34003 ft 453 kts 300°
2026-05-08 04:56 34.04913 70.23634 34005 ft 455 kts 300°
2026-05-08 04:57 34.07867 70.16892 33981 ft 452 kts 300°
2026-05-08 04:57 34.10769 70.10265 33970 ft 445 kts 300°
2026-05-08 04:58 34.13669 70.03627 34008 ft 449 kts 300°
2026-05-08 04:58 34.16588 69.96930 33990 ft 452 kts 300°
2026-05-08 04:59 34.19509 69.90208 34000 ft 453 kts 300°
2026-05-08 04:59 34.22425 69.83462 33998 ft 452 kts 300°
2026-05-08 05:00 34.25326 69.76736 34021 ft 450 kts 300°
2026-05-08 05:00 34.28213 69.70026 34029 ft 449 kts 300°
2026-05-08 05:01 34.31093 69.63332 34045 ft 449 kts 300°
2026-05-08 05:01 34.33483 69.57764 34030 ft 449 kts 300°
2026-05-08 05:02 34.36356 69.51054 34020 ft 449 kts 300°
2026-05-08 05:02 34.39229 69.44333 34012 ft 450 kts 300°
2026-05-08 05:03 34.42097 69.37610 34034 ft 450 kts 300°
2026-05-08 05:03 34.44963 69.30878 34045 ft 449 kts 300°
2026-05-08 05:04 34.47826 69.24142 34041 ft 449 kts 300°
2026-05-08 05:04 34.50995 69.17684 34029 ft 443 kts 311°
2026-05-08 05:05 34.55477 69.12623 34042 ft 440 kts 324°
2026-05-08 05:05 34.60793 69.08989 34047 ft 438 kts 331°
2026-05-08 05:06 34.66205 69.05579 34048 ft 438 kts 331°
2026-05-08 05:06 34.71569 69.02157 34052 ft 439 kts 331°
2026-05-08 05:07 34.76974 68.98667 34079 ft 440 kts 331°
2026-05-08 05:07 34.82381 68.95159 34075 ft 441 kts 331°
2026-05-08 05:08 34.87787 68.91646 34116 ft 441 kts 330°
2026-05-08 05:08 34.93211 68.88115 34104 ft 442 kts 330°
2026-05-08 05:09 34.98632 68.84581 34155 ft 442 kts 330°
2026-05-08 05:09 35.04053 68.81041 34181 ft 442 kts 330°
2026-05-08 05:10 35.12164 68.75738 34174 ft 440 kts 330°
2026-05-08 05:11 35.17555 68.72204 34212 ft 439 kts 330°
2026-05-08 05:11 35.22933 68.68675 34229 ft 439 kts 330°
2026-05-08 05:12 35.28326 68.65131 34236 ft 440 kts 330°
2026-05-08 05:12 35.33738 68.61569 34226 ft 442 kts 330°
2026-05-08 05:13 35.39170 68.57987 34218 ft 445 kts 330°
2026-05-08 05:13 35.44632 68.54380 34219 ft 446 kts 330°
2026-05-08 05:14 35.50062 68.50789 34179 ft 446 kts 330°
2026-05-08 05:14 35.55507 68.47183 34180 ft 443 kts 330°
2026-05-08 05:15 35.60918 68.43592 34163 ft 440 kts 330°
2026-05-08 05:15 35.66265 68.40020 34158 ft 436 kts 330°
2026-05-08 05:16 35.71581 68.36454 34155 ft 435 kts 330°
2026-05-08 05:16 35.76899 68.32882 34162 ft 435 kts 330°
2026-05-08 05:17 35.82217 68.29307 34166 ft 436 kts 330°
2026-05-08 05:17 35.87552 68.25717 34174 ft 438 kts 330°
2026-05-08 05:18 35.92920 68.22095 34155 ft 441 kts 330°
2026-05-08 05:18 35.98308 68.18453 34136 ft 442 kts 330°
2026-05-08 05:19 36.03690 68.14812 34132 ft 440 kts 330°
2026-05-08 05:19 36.09052 68.11180 34112 ft 438 kts 330°
2026-05-08 05:20 36.14389 68.07558 34109 ft 437 kts 330°
2026-05-08 05:20 36.19704 68.03945 34099 ft 435 kts 330°
2026-05-08 05:21 36.24974 68.00358 34080 ft 435 kts 330°
2026-05-08 05:21 36.30304 67.96725 34071 ft 434 kts 330°
2026-05-08 05:22 36.35598 67.93109 34085 ft 434 kts 330°
2026-05-08 05:22 36.40892 67.89488 34068 ft 435 kts 330°
2026-05-08 05:23 36.46155 67.85882 34045 ft 434 kts 330°
2026-05-08 05:23 36.51446 67.82253 34055 ft 435 kts 330°
2026-05-08 05:24 36.56744 67.78612 34055 ft 435 kts 329°
2026-05-08 05:24 36.62027 67.74975 34048 ft 432 kts 329°
2026-05-08 05:25 36.67298 67.71341 34062 ft 434 kts 329°
2026-05-08 05:25 36.72594 67.67685 34045 ft 436 kts 329°
2026-05-08 05:26 36.77909 67.64027 34036 ft 436 kts 330°
2026-05-08 05:26 36.83225 67.60367 34038 ft 436 kts 329°
2026-05-08 05:27 36.88537 67.56702 34032 ft 436 kts 329°
2026-05-08 05:27 36.93841 67.53035 34028 ft 435 kts 329°
2026-05-08 05:28 36.99126 67.49375 34026 ft 434 kts 329°
2026-05-08 05:28 37.04398 67.45718 34020 ft 432 kts 329°
2026-05-08 05:29 37.09654 67.42066 34020 ft 432 kts 329°
2026-05-08 05:29 37.14901 67.38414 34028 ft 431 kts 329°
2026-05-08 05:30 37.20146 67.34759 34014 ft 431 kts 329°
2026-05-08 05:30 37.25318 67.30961 34021 ft 431 kts 327°
2026-05-08 05:31 37.30407 67.26999 34013 ft 431 kts 327°
2026-05-08 05:31 37.35469 67.23059 34022 ft 431 kts 326°
2026-05-08 05:32 37.40574 67.19110 34026 ft 430 kts 326°
2026-05-08 05:32 37.45674 67.15172 34016 ft 430 kts 326°
2026-05-08 05:33 37.50767 67.11238 34021 ft 429 kts 326°
2026-05-08 05:33 37.55849 67.07306 34022 ft 428 kts 326°
2026-05-08 05:34 37.60921 67.03373 34042 ft 428 kts 326°
2026-05-08 05:34 37.66021 66.99413 34032 ft 427 kts 326°
2026-05-08 05:35 37.71053 66.95499 34055 ft 427 kts 326°
2026-05-08 05:35 37.76117 66.91553 34048 ft 428 kts 326°
2026-05-08 05:36 37.81187 66.87597 34064 ft 428 kts 326°
2026-05-08 05:36 37.86251 66.83639 34072 ft 428 kts 326°
2026-05-08 05:37 37.91312 66.79677 34085 ft 428 kts 325°
2026-05-08 05:37 37.96373 66.75708 34082 ft 428 kts 325°
2026-05-08 05:38 38.01435 66.71732 34093 ft 428 kts 325°
2026-05-08 05:38 38.06495 66.67751 34086 ft 428 kts 325°
2026-05-08 05:39 38.11551 66.63766 34081 ft 428 kts 325°
2026-05-08 05:39 38.16606 66.59776 34070 ft 428 kts 325°
2026-05-08 05:40 38.21660 66.55780 34071 ft 427 kts 324°
2026-05-08 05:40 38.26701 66.51788 34085 ft 426 kts 324°
2026-05-08 05:41 38.31732 66.47797 34054 ft 426 kts 324°
2026-05-08 05:41 38.36749 66.43810 34049 ft 425 kts 324°
2026-05-08 05:42 38.41718 66.39854 34043 ft 423 kts 324°
2026-05-08 05:42 38.46742 66.35849 34056 ft 424 kts 324°
2026-05-08 05:43 38.51744 66.31852 34040 ft 425 kts 324°
2026-05-08 05:43 38.56719 66.27873 34042 ft 424 kts 323°
2026-05-08 05:43 38.59039 66.25601 34034 ft 418 kts 312°
2026-05-08 05:44 38.60906 66.22765 34043 ft 417 kts 304°
2026-05-08 05:44 38.63653 66.16266 34022 ft 417 kts 289°
2026-05-08 05:45 38.65249 66.09111 34041 ft 419 kts 288°
2026-05-08 05:45 38.66841 66.01918 34042 ft 421 kts 288°
2026-05-08 05:46 38.68464 65.94706 34036 ft 422 kts 288°
2026-05-08 05:46 38.70102 65.87485 34023 ft 423 kts 288°
2026-05-08 05:47 38.71739 65.80262 34027 ft 422 kts 288°
2026-05-08 05:47 38.73371 65.73040 34020 ft 422 kts 288°
2026-05-08 05:48 38.74995 65.65829 34025 ft 421 kts 288°
2026-05-08 05:48 38.76609 65.58636 34006 ft 419 kts 288°
2026-05-08 05:49 38.78212 65.51470 34015 ft 418 kts 288°
2026-05-08 05:49 38.79809 65.44311 34010 ft 417 kts 288°
2026-05-08 05:50 38.81400 65.37152 34009 ft 417 kts 288°
2026-05-08 05:50 38.82720 65.31199 34009 ft 418 kts 287°
2026-05-08 05:51 38.84305 65.24025 34024 ft 419 kts 287°
2026-05-08 05:51 38.85890 65.16832 34012 ft 419 kts 287°
2026-05-08 05:52 38.87469 65.09641 34007 ft 419 kts 287°
2026-05-08 05:52 38.89042 65.02450 34007 ft 418 kts 287°
2026-05-08 05:53 38.90604 64.95265 33994 ft 418 kts 287°
2026-05-08 05:53 38.92166 64.88060 34010 ft 419 kts 287°
2026-05-08 05:54 38.93726 64.80841 34003 ft 420 kts 286°
2026-05-08 05:54 38.95286 64.73595 34012 ft 421 kts 286°
2026-05-08 05:55 38.96840 64.66358 34005 ft 419 kts 286°
2026-05-08 05:55 38.98382 64.59149 34009 ft 417 kts 286°
2026-05-08 05:56 38.99914 64.51965 34009 ft 416 kts 286°
2026-05-08 05:56 39.01438 64.44794 34003 ft 416 kts 286°
2026-05-08 05:57 39.02956 64.37627 34004 ft 416 kts 286°
2026-05-08 05:57 39.04473 64.30444 34009 ft 417 kts 285°
2026-05-08 05:58 39.05991 64.23235 34003 ft 418 kts 285°
2026-05-08 05:58 39.06765 64.15867 34005 ft 420 kts 271°
2026-05-08 05:59 39.06023 64.08372 33994 ft 427 kts 259°
2026-05-08 05:59 39.03952 64.01154 33994 ft 431 kts 253°
2026-05-08 06:00 39.01774 63.93965 33998 ft 432 kts 254°
2026-05-08 06:00 38.99633 63.86752 34005 ft 432 kts 254°
2026-05-08 06:01 38.97523 63.79589 34003 ft 431 kts 254°
2026-05-08 06:01 38.95396 63.72376 34014 ft 432 kts 253°
2026-05-08 06:02 38.93260 63.65159 34017 ft 433 kts 254°
2026-05-08 06:02 38.91730 63.57747 34022 ft 428 kts 263°
2026-05-08 06:03 38.91051 63.50177 34019 ft 426 kts 269°
2026-05-08 06:03 38.90809 63.42566 34014 ft 427 kts 270°
2026-05-08 06:04 38.90572 63.34943 34017 ft 428 kts 270°
2026-05-08 06:04 38.90316 63.27316 34016 ft 428 kts 269°
2026-05-08 06:05 38.90047 63.19689 34018 ft 427 kts 269°
2026-05-08 06:05 38.89771 63.12071 34028 ft 427 kts 269°
2026-05-08 06:06 38.89490 63.04473 34022 ft 426 kts 269°
2026-05-08 06:06 38.89205 62.96891 34023 ft 424 kts 269°
2026-05-08 06:07 38.88916 62.89334 34025 ft 424 kts 269°
2026-05-08 06:07 38.88623 62.81792 34024 ft 423 kts 269°
2026-05-08 06:08 38.88325 62.74256 34035 ft 422 kts 269°
2026-05-08 06:08 38.88023 62.66746 34029 ft 421 kts 269°
2026-05-08 06:09 38.87720 62.59297 34036 ft 420 kts 268°
2026-05-08 06:09 38.87407 62.51756 34040 ft 420 kts 268°
2026-05-08 06:10 38.87095 62.44323 34036 ft 420 kts 268°
2026-05-08 06:10 38.86775 62.36842 34044 ft 420 kts 268°
2026-05-08 06:11 38.86451 62.29363 34044 ft 420 kts 268°
2026-05-08 06:11 38.86121 62.21881 34042 ft 420 kts 268°
2026-05-08 06:12 38.85788 62.14398 34049 ft 420 kts 268°
2026-05-08 06:12 38.85448 62.06904 34050 ft 421 kts 268°
2026-05-08 06:13 38.85103 61.99392 34051 ft 422 kts 268°
2026-05-08 06:13 38.84753 61.91882 34062 ft 422 kts 267°
2026-05-08 06:14 38.84399 61.84363 34084 ft 422 kts 267°
2026-05-08 06:14 38.84039 61.76853 34062 ft 421 kts 267°
2026-05-08 06:15 38.83675 61.69360 34054 ft 420 kts 267°
2026-05-08 06:15 38.83308 61.61889 34063 ft 419 kts 267°
2026-05-08 06:16 38.82937 61.54440 34058 ft 418 kts 267°
2026-05-08 06:16 38.82563 61.47005 34059 ft 418 kts 267°
2026-05-08 06:17 38.81992 61.35852 34063 ft 418 kts 267°
2026-05-08 06:17 38.81606 61.28415 34065 ft 418 kts 266°
2026-05-08 06:18 38.81024 61.20988 34068 ft 419 kts 262°
2026-05-08 06:18 38.80148 61.13594 34069 ft 420 kts 262°
2026-05-08 06:19 38.79282 61.06189 34073 ft 420 kts 263°
2026-05-08 06:19 38.78418 60.98778 34076 ft 420 kts 262°
2026-05-08 06:20 38.77550 60.91377 34074 ft 420 kts 262°
2026-05-08 06:20 38.76726 60.84021 34071 ft 419 kts 263°
2026-05-08 06:21 38.75915 60.76629 34098 ft 419 kts 263°
2026-05-08 06:21 38.75092 60.69194 34087 ft 418 kts 262°
2026-05-08 06:22 38.74275 60.61883 34068 ft 417 kts 262°
2026-05-08 06:22 38.73449 60.54553 34082 ft 415 kts 262°
2026-05-08 06:23 38.72619 60.47237 34083 ft 415 kts 262°
2026-05-08 06:23 38.71786 60.39928 34075 ft 415 kts 262°
2026-05-08 06:24 38.70949 60.32630 34089 ft 414 kts 262°
2026-05-08 06:24 38.70108 60.25335 34093 ft 414 kts 262°
2026-05-08 06:25 38.69262 60.18035 34089 ft 415 kts 262°
2026-05-08 06:25 38.68410 60.10731 34078 ft 415 kts 261°
2026-05-08 06:26 38.67553 60.03422 34082 ft 415 kts 261°
2026-05-08 06:26 38.66692 59.96117 34081 ft 415 kts 261°
2026-05-08 06:27 38.65825 59.88805 34081 ft 416 kts 261°
2026-05-08 06:27 38.64955 59.81497 34082 ft 416 kts 261°
2026-05-08 06:28 38.64078 59.74187 34086 ft 416 kts 261°
2026-05-08 06:28 38.63198 59.66885 34087 ft 415 kts 261°
2026-05-08 06:29 38.62314 59.59583 34088 ft 415 kts 261°
2026-05-08 06:29 38.61426 59.52287 34137 ft 416 kts 260°
2026-05-08 06:30 38.60980 59.48635 34288 ft 417 kts 260°
2026-05-08 06:30 38.60531 59.44977 34586 ft 415 kts 261°
2026-05-08 06:30 38.59980 59.41423 34903 ft 413 kts 255°
2026-05-08 06:30 38.59036 59.37964 35205 ft 412 kts 249°
2026-05-08 06:31 38.57879 59.34613 35482 ft 412 kts 247°
2026-05-08 06:31 38.56542 59.31362 35738 ft 414 kts 242°
2026-05-08 06:31 38.54888 59.28347 36000 ft 415 kts 237°
2026-05-08 06:31 38.53161 59.25377 35988 ft 417 kts 238°
2026-05-08 06:32 38.49968 59.19244 36069 ft 412 kts 247°
2026-05-08 06:32 38.47976 59.12443 36084 ft 408 kts 255°
2026-05-08 06:33 38.47026 59.05325 36085 ft 407 kts 263°
2026-05-08 06:33 38.46428 58.98134 36087 ft 407 kts 263°
2026-05-08 06:34 38.45812 58.90959 36085 ft 407 kts 263°
2026-05-08 06:34 38.45173 58.83799 36080 ft 406 kts 263°
2026-05-08 06:35 38.44524 58.76652 36079 ft 405 kts 262°
2026-05-08 06:35 38.43870 58.69522 36076 ft 405 kts 262°
2026-05-08 06:36 38.43213 58.62395 36069 ft 404 kts 262°
2026-05-08 06:36 38.42552 58.55271 36074 ft 405 kts 262°
2026-05-08 06:37 38.41887 58.48146 36074 ft 405 kts 262°
2026-05-08 06:37 38.41331 58.42228 36075 ft 405 kts 262°
2026-05-08 06:38 38.40662 58.35098 36077 ft 404 kts 263°
2026-05-08 06:38 38.41004 58.27926 36082 ft 409 kts 276°
2026-05-08 06:39 38.42490 58.20890 36068 ft 417 kts 288°
2026-05-08 06:39 38.44914 58.14145 36087 ft 419 kts 289°
2026-05-08 06:40 38.47363 58.07404 36081 ft 418 kts 288°
2026-05-08 06:40 38.49773 58.00646 36085 ft 418 kts 288°
2026-05-08 06:41 38.52163 57.93879 36085 ft 418 kts 288°
2026-05-08 06:41 38.54545 57.87108 36083 ft 418 kts 288°
2026-05-08 06:42 38.56908 57.80380 36087 ft 418 kts 288°
2026-05-08 06:42 38.59284 57.73601 36084 ft 418 kts 288°
2026-05-08 06:43 38.61580 57.66782 36086 ft 415 kts 284°
2026-05-08 06:43 38.63128 57.59733 36097 ft 411 kts 278°
2026-05-08 06:44 38.64488 57.52637 36097 ft 411 kts 278°
2026-05-08 06:44 38.65863 57.45539 36087 ft 411 kts 278°
2026-05-08 06:45 38.67236 57.38450 36089 ft 410 kts 278°
2026-05-08 06:45 38.68603 57.31363 36097 ft 410 kts 278°
2026-05-08 06:46 38.69965 57.24280 36097 ft 410 kts 278°
2026-05-08 06:46 38.71323 57.17186 36102 ft 410 kts 278°
2026-05-08 06:47 38.72677 57.10092 36104 ft 410 kts 278°
2026-05-08 06:47 38.74026 57.02996 36097 ft 410 kts 277°
2026-05-08 06:48 38.75371 56.95897 36103 ft 410 kts 277°
2026-05-08 06:48 38.76712 56.88796 36108 ft 410 kts 277°
2026-05-08 06:49 38.78048 56.81696 36120 ft 410 kts 277°
2026-05-08 06:49 38.79381 56.74584 36102 ft 411 kts 276°
2026-05-08 06:50 38.80702 56.67507 36108 ft 411 kts 276°
2026-05-08 06:50 38.82030 56.60372 36107 ft 412 kts 276°
2026-05-08 06:51 38.83355 56.53227 36103 ft 412 kts 276°
2026-05-08 06:51 38.84678 56.46063 36108 ft 413 kts 276°
2026-05-08 06:52 38.85999 56.38884 36116 ft 415 kts 276°
2026-05-08 06:52 38.87320 56.31678 36110 ft 415 kts 275°
2026-05-08 06:53 38.88639 56.24464 36120 ft 415 kts 275°
2026-05-08 06:53 38.89953 56.17244 36119 ft 416 kts 275°
2026-05-08 06:54 38.91263 56.10016 36111 ft 416 kts 275°
2026-05-08 06:54 38.92568 56.02798 36123 ft 415 kts 275°
2026-05-08 06:55 38.93866 55.95588 36113 ft 414 kts 275°
2026-05-08 06:55 38.95154 55.88403 36117 ft 412 kts 275°
2026-05-08 06:56 38.96435 55.81233 36118 ft 412 kts 275°
2026-05-08 06:56 38.97709 55.74063 36119 ft 412 kts 274°
2026-05-08 06:57 38.98982 55.66879 36142 ft 412 kts 274°
2026-05-08 06:57 39.00253 55.59688 36125 ft 413 kts 274°
2026-05-08 06:58 39.01519 55.52495 36117 ft 412 kts 274°
2026-05-08 06:58 39.02787 55.45300 36128 ft 412 kts 274°
2026-05-08 06:59 39.04053 55.38106 36122 ft 412 kts 274°
2026-05-08 06:59 39.05311 55.30917 36154 ft 412 kts 274°
2026-05-08 07:00 39.06564 55.23734 36118 ft 411 kts 274°
2026-05-08 07:00 39.07810 55.16583 36143 ft 409 kts 273°
2026-05-08 07:01 39.09040 55.09448 36124 ft 408 kts 273°
2026-05-08 07:01 39.10261 55.02356 36125 ft 409 kts 273°
2026-05-08 07:02 39.11488 54.95208 36122 ft 409 kts 273°
2026-05-08 07:02 39.12713 54.88041 36132 ft 410 kts 273°
2026-05-08 07:03 39.13936 54.80860 36127 ft 411 kts 273°
2026-05-08 07:03 39.15157 54.73671 36131 ft 411 kts 273°
2026-05-08 07:04 39.16373 54.66467 36127 ft 412 kts 273°
2026-05-08 07:04 39.17587 54.59256 36130 ft 412 kts 273°
2026-05-08 07:05 39.18799 54.52024 36136 ft 414 kts 273°
2026-05-08 07:05 39.20007 54.44770 36127 ft 414 kts 273°
2026-05-08 07:06 39.21211 54.37509 36130 ft 415 kts 272°
2026-05-08 07:06 39.22413 54.30235 36122 ft 415 kts 272°
2026-05-08 07:07 39.23611 54.22957 36132 ft 415 kts 272°
2026-05-08 07:07 39.24805 54.15675 36135 ft 415 kts 272°
2026-05-08 07:08 39.25984 54.08447 36134 ft 415 kts 272°
2026-05-08 07:08 39.27167 54.01168 36127 ft 414 kts 272°
2026-05-08 07:09 39.28345 53.93891 36128 ft 414 kts 272°
2026-05-08 07:09 39.29519 53.86609 36130 ft 414 kts 272°
2026-05-08 07:10 39.30688 53.79317 36136 ft 415 kts 272°
2026-05-08 07:10 39.31856 53.72010 36129 ft 416 kts 272°
2026-05-08 07:11 39.33019 53.64697 36135 ft 416 kts 272°
2026-05-08 07:11 39.34179 53.57380 36136 ft 416 kts 272°
2026-05-08 07:12 39.35335 53.50055 36138 ft 416 kts 272°
2026-05-08 07:12 39.36486 53.42722 36146 ft 417 kts 272°
2026-05-08 07:13 39.37637 53.35367 36145 ft 418 kts 272°
2026-05-08 07:13 39.38784 53.28002 36143 ft 418 kts 272°